Location: Proctor
(47.8934°N, 114.3048°W)
Time: 00:13:44
(UTC+00:00)

SR - All Passes

Search period start: 13 June 2024 00:00
Search period end: 23 June 2024 00:00
Orbit: 580 x 858 km, 66.7° (Epoch: 12 June)

Date Brightness Start Highest point End Pass type
(mag) Time Alt. Az. Time Alt. Az. Time Alt. Az.
13 Jun - 03:37:36 10° NNW 03:41:27 31° NE 03:45:14 10° ESE daylight
13 Jun - 05:19:25 10° NW 05:23:18 35° WSW 05:27:10 10° S visible
13 Jun - 19:50:11 10° SSW 19:55:06 62° ESE 19:59:39 10° NE daylight
13 Jun - 21:33:19 10° W 21:37:15 25° NW 21:41:00 10° NNE daylight
14 Jun - 02:45:42 10° N 02:48:44 18° NE 02:51:44 10° E daylight
14 Jun - 04:26:50 10° NW 04:31:06 79° WSW 04:35:21 10° SSE visible
14 Jun - 18:58:35 10° S 19:02:55 30° ESE 19:06:59 10° NE daylight
14 Jun - 20:40:01 10° WSW 20:44:39 43° NW 20:49:00 10° NNE daylight
14 Jun - 22:26:02 10° NW 22:27:38 12° NNW 22:29:13 10° N daylight
15 Jun - 01:54:13 10° N 01:55:49 12° NNE 01:57:25 10° NE daylight
15 Jun - 03:34:34 10° NNW 03:38:44 49° NE 03:42:51 10° SE daylight
15 Jun - 05:17:02 10° WNW 05:20:13 21° WSW 05:23:24 10° SSW visible
15 Jun - 18:08:09 10° SE 18:10:54 15° ESE 18:13:33 10° ENE daylight
15 Jun - 19:47:16 10° SW 19:52:13 82° NW 19:56:48 10° NNE daylight
15 Jun - 21:31:31 10° WNW 21:34:42 18° NW 21:37:46 10° N daylight
16 Jun - 02:42:31 10° NNW 02:46:09 26° NE 02:49:45 10° E daylight
16 Jun - 04:24:05 10° NW 04:28:09 45° WSW 04:32:12 10° S visible
16 Jun - 18:55:09 10° SSW 18:59:56 50° ESE 19:04:23 10° NE daylight
16 Jun - 20:37:47 10° WSW 20:41:57 28° NW 20:45:53 10° NNE daylight
17 Jun - 01:50:41 10° N 01:53:22 16° NNE 01:56:01 10° ENE daylight
17 Jun - 03:31:37 10° NNW 03:35:54 83° ENE 03:40:09 10° SE daylight
17 Jun - 05:15:28 10° W 05:17:03 12° WSW 05:18:38 10° SW visible
17 Jun - 18:03:49 10° SSE 18:07:47 24° ESE 18:11:33 10° ENE daylight
17 Jun - 19:44:38 10° SW 19:49:24 51° NW 19:53:50 10° NNE daylight
17 Jun - 21:30:05 10° WNW 21:32:13 13° NNW 21:34:19 10° N daylight
18 Jun - 00:59:36 10° NNE 01:00:24 10° NNE 01:01:11 10° NE daylight
18 Jun - 02:39:25 10° NNW 02:43:27 40° NE 02:47:28 10° ESE daylight
18 Jun - 04:21:33 10° WNW 04:25:05 26° WSW 04:28:39 10° S visible
18 Jun - 17:14:07 10° SE 17:15:48 12° ESE 17:17:28 10° E daylight
18 Jun - 18:52:04 10° SSW 18:57:00 82° ESE 19:01:34 10° NE daylight
18 Jun - 20:35:51 10° W 20:39:20 20° NW 20:42:41 10° N daylight
19 Jun - 01:47:24 10° NNW 01:50:48 22° NE 01:54:10 10° E daylight
19 Jun - 03:28:47 10° NW 03:32:57 57° WSW 03:37:08 10° SSE daylight
19 Jun - 18:00:09 10° S 18:04:45 40° ESE 18:09:02 10° NE daylight
19 Jun - 19:42:17 10° WSW 19:46:38 33° NW 19:50:44 10° NNE daylight
20 Jun - 00:55:41 10° N 00:57:57 14° NNE 01:00:13 10° ENE daylight
20 Jun - 02:36:23 10° NNW 02:40:38 66° NE 02:44:52 10° SE daylight
20 Jun - 04:19:27 10° WNW 04:21:56 15° WSW 04:24:25 10° SW visible
20 Jun - 17:09:08 10° SSE 17:12:38 20° ESE 17:15:59 10° ENE daylight
20 Jun - 18:49:18 10° SW 18:54:07 63° NW 18:58:36 10° NNE daylight
20 Jun - 20:34:13 10° WNW 20:36:48 15° NNW 20:39:18 10° N daylight
21 Jun - 01:44:15 10° NNW 01:48:07 33° NE 01:51:59 10° ESE daylight
21 Jun - 03:26:06 10° NW 03:29:55 33° WSW 03:33:45 10° S daylight
21 Jun - 17:56:54 10° SSW 18:01:45 66° ESE 18:06:16 10° NE daylight
21 Jun - 19:40:12 10° W 19:43:57 23° NW 19:47:33 10° NNE daylight
22 Jun - 00:52:18 10° N 00:55:24 19° NE 00:58:30 10° E daylight
22 Jun - 02:33:28 10° NW 02:37:43 73° WSW 02:41:58 10° SSE daylight
22 Jun - 17:05:12 10° S 17:09:32 32° ESE 17:13:36 10° NE daylight
22 Jun - 18:46:47 10° WSW 18:51:18 40° NW 18:55:32 10° NNE daylight
22 Jun - 20:33:09 10° NW 20:34:20 11° NNW 20:35:29 10° N daylight
